This demonstration page uses our WeatherBlox Daily Observations layout. Learn more.

Left ArrowRight Arrow

44.89941, -97.11507

Hourly Observations for July 1, 2016

Temp ( °F °C ) Dew Point ( °F °C ) Humidity (%) Winds ( mph kmh ) Pressure ( in mb ) Visibility ( mi km ) Precip ( " mm )
12:53 am 00:53 Clear 47 8.3 42 5.6 83 83 NNE 7 11 30.18 1022 10 16 0.00 0.00
1:53 am 01:53 Clear 48 8.9 43 6.1 83 83 NNE 6 9 30.18 1022 10 16 0.00 0.00
2:53 am 02:53 Clear 46 7.8 42 5.6 86 86 NNE 6 9 30.18 1022 10 16 0.00 0.00
3:53 am 03:53 Clear 47 8.3 43 6.1 86 86 N 5 7 30.18 1022 10 16 0.00 0.00
4:53 am 04:53 Clear 45 7.2 41 5 86 86 N 6 9 30.20 1023 10 16 0.00 0.00
5:53 am 05:53 Sunny 44 6.7 41 5 89 89 Calm 30.21 1023 10 16 0.00 0.00
6:53 am 06:53 Sunny 45 7.2 42 5.6 90 90 NNE 3 6 30.20 1023 10 16 0.00 0.00
7:53 am 07:53 Sunny 54 12.2 46 7.8 75 75 E 9 15 30.20 1023 10 16 0.00 0.00
8:53 am 08:53 Sunny 58 14.4 47 8.3 67 67 ESE 8 13 30.21 1023 10 16 0.00 0.00
9:53 am 09:53 Sunny 61 16.1 47 8.3 60 60 VRB 5 7 30.20 1023 10 16 0.00 0.00
10:53 am 10:53 Sunny 65 18.3 47 8.3 52 52 undefined N/A 30.19 1022 10 16 0.00 0.00
11:53 am 11:53 Sunny 68 20 46 7.8 45 45 SW 5 7 30.18 1022 10 16 0.00 0.00
12:53 pm 12:53 Sunny 70 21.1 45 7.2 41 41 Calm 30.17 1022 10 16 0.00 0.00
1:53 pm 13:53 Sunny 73 22.8 47 8.3 40 40 undefined N/A 30.15 1021 10 16 0.00 0.00
2:53 pm 14:53 Sunny 74 23.3 43 6.1 33 33 S 8 13 30.15 1021 10 16 0.00 0.00
3:53 pm 15:53 Sunny 74 23.3 43 6.1 33 33 S 9 15 30.13 1020 10 16 0.00 0.00
4:53 pm 16:53 Sunny 74 23.3 43 6.1 33 33 SSW 5 7 30.11 1020 10 16 0.00 0.00
5:53 pm 17:53 Sunny 73 22.8 46 7.8 38 38 S 8 13 30.10 1019 10 16 0.00 0.00
6:53 pm 18:53 Sunny 73 22.8 45 7.2 37 37 S 9 15 30.10 1019 10 16 0.00 0.00
7:53 pm 19:53 Sunny 72 22.2 46 7.8 40 40 S 8 13 30.09 1019 10 16 0.00 0.00
8:53 pm 20:53 Sunny 68 20 48 8.9 49 49 S 6 9 30.08 1019 10 16 0.00 0.00
9:53 pm 21:53 Clear 66 18.9 49 9.4 54 54 SSE 6 9 30.08 1019 10 16 0.00 0.00
10:53 pm 22:53 Clear 64 17.8 50 10 60 60 SE 3 6 30.09 1019 10 16 0.00 0.00
11:53 pm 23:53 Clear 62 16.7 50 10 65 65 SSE 7 11 30.09 1019 10 16 0.00 0.00

Powered by AerisWeather